| time (UTC) | temp F | wind direction | speed MPH | gust MPH | rain 1hr in | rain 24hr in | rain mn in | humidity % | barometer mb |
| 20260510173603 | 77 | 245 | 2.0 | 5.0 | 0.00 | 0.00 | 0.00 | 52 | 1010.6 |
| 20260510172725 | 76 | 239 | 2.0 | 4.0 | 0.00 | 0.00 | 0.00 | 51 | 1010.7 |
| 20260510171804 | 76 | 222 | 1.0 | 6.0 | 0.00 | 0.00 | 0.00 | 53 | 1010.7 |
| 20260510170903 | 75 | 219 | 2.0 | 5.0 | 0.00 | 0.00 | 0.00 | 51 | 1010.7 |
| 20260510170004 | 74 | 228 | 2.0 | 6.0 | 0.00 | 0.00 | 0.00 | 50 | 1010.5 |
| 20260510165403 | 73 | 228 | 1.0 | 6.0 | 0.00 | 0.00 | 0.00 | 54 | 1010.4 |
| 20260510164503 | 72 | 230 | 2.0 | 5.0 | 0.00 | 0.00 | 0.00 | 55 | 1010.5 |
| 20260510163624 | 71 | 215 | 1.0 | 4.0 | 0.00 | 0.00 | 0.00 | 56 | 1010.5 |
| 20260510162725 | 70 | 277 | 0.0 | 1.0 | 0.00 | 0.00 | 0.00 | 59 | 1010.3 |
| 20260510161803 | 69 | 267 | 0.0 | 2.0 | 0.00 | 0.00 | 0.00 | 60 | 1010.3 |
| 20260510160904 | 67 | 240 | 0.0 | 1.0 | 0.00 | 0.00 | 0.00 | 65 | 1010.3 |
| 20260510160003 | 65 | 0 | 0.0 | 0.0 | 0.00 | 0.00 | 0.00 | 68 | 1010.2 |
| 20260510155424 | 64 | 0 | 0.0 | 0.0 | 0.00 | 0.00 | 0.00 | 72 | 1010.2 |
| 20260510154503 | 63 | 0 | 0.0 | 0.0 | 0.00 | 0.00 | 0.00 | 76 | 1010.3 |
| 20260510153624 | 62 | 0 | 0.0 | 0.0 | 0.00 | 0.00 | 0.00 | 80 | 1010.3 |
| 20260510152703 | 61 | 0 | 0.0 | 0.0 | 0.00 | 0.00 | 0.00 | 84 | 1010.3 |
| 20260510151803 | 60 | 0 | 0.0 | 0.0 | 0.00 | 0.00 | 0.00 | 88 | 1010.2 |
| 20260510150903 | 58 | 0 | 0.0 | 0.0 | 0.00 | 0.00 | 0.00 | 90 | 1010.3 |
| 20260510150003 | 57 | 0 | 0.0 | 0.0 | 0.00 | 0.00 | 0.00 | 91 | 1010.3 |
| 20260510145403 | 56 | 0 | 0.0 | 0.0 | 0.00 | 0.00 | 0.00 | 91 | 1010.2 |
| 20260510144503 | 55 | 0 | 0.0 | 0.0 | 0.00 | 0.00 | 0.00 | 92 | 1010.3 |
| 20260510143603 | 54 | 0 | 0.0 | 0.0 | 0.00 | 0.00 | 0.00 | 92 | 1010.2 |
| 20260510142703 | 53 | 0 | 0.0 | 0.0 | 0.00 | 0.00 | 0.00 | 93 | 1010.2 |
| 20260510141803 | 52 | 0 | 0.0 | 0.0 | 0.00 | 0.00 | 0.00 | 93 | 1010.1 |
| 20260510140903 | 52 | 0 | 0.0 | 0.0 | 0.00 | 0.00 | 0.00 | 93 | 1010.1 |
| 20260510140003 | 52 | 0 | 0.0 | 0.0 | 0.00 | 0.00 | 0.00 | 93 | 1010.0 |
| 20260510135404 | 51 | 0 | 0.0 | 0.0 | 0.00 | 0.00 | 0.00 | 93 | 1010.0 |
| 20260510134503 | 50 | 0 | 0.0 | 0.0 | 0.00 | 0.00 | 0.00 | 94 | 1010.0 |
| 20260510133604 | 49 | 0 | 0.0 | 0.0 | 0.00 | 0.00 | 0.00 | 94 | 1010.0 |
| 20260510132704 | 48 | 0 | 0.0 | 0.0 | 0.00 | 0.00 | 0.00 | 94 | 1009.9 |
| 20260510131824 | 48 | 0 | 0.0 | 0.0 | 0.00 | 0.00 | 0.00 | 94 | 1009.7 |
| 20260510130904 | 48 | 0 | 0.0 | 0.0 | 0.00 | 0.00 | 0.00 | 94 | 1009.7 |
| 20260510130003 | 48 | 0 | 0.0 | 0.0 | 0.00 | 0.00 | 0.00 | 94 | 1009.6 |
| 20260510125404 | 48 | 0 | 0.0 | 0.0 | 0.00 | 0.00 | 0.00 | 94 | 1009.6 |
| 20260510124524 | 48 | 0 | 0.0 | 0.0 | 0.00 | 0.00 | 0.00 | 94 | 1009.6 |
| 20260510123603 | 48 | 0 | 0.0 | 0.0 | 0.00 | 0.00 | 0.00 | 94 | 1009.5 |
| 20260510122703 | 48 | 0 | 0.0 | 0.0 | 0.00 | 0.00 | 0.00 | 94 | 1009.5 |
| 20260510121805 | 48 | 0 | 0.0 | 0.0 | 0.00 | 0.00 | 0.00 | 94 | 1009.4 |
| 20260510120903 | 48 | 0 | 0.0 | 0.0 | 0.00 | 0.00 | 0.00 | 94 | 1009.4 |
| 20260510120024 | 48 | 0 | 0.0 | 0.0 | 0.00 | 0.00 | 0.00 | 94 | 1009.4 |
| 20260510115424 | 48 | 0 | 0.0 | 0.0 | 0.00 | 0.00 | 0.00 | 94 | 1009.5 |
| 20260510114504 | 50 | 0 | 0.0 | 0.0 | 0.00 | 0.00 | 0.00 | 93 | 1009.3 |
| 20260510113624 | 50 | 0 | 0.0 | 0.0 | 0.00 | 0.00 | 0.00 | 93 | 1009.4 |
| 20260510112703 | 50 | 0 | 0.0 | 0.0 | 0.00 | 0.00 | 0.00 | 92 | 1009.4 |
| 20260510111803 | 50 | 0 | 0.0 | 0.0 | 0.00 | 0.00 | 0.00 | 93 | 1009.4 |
| 20260510110903 | 50 | 0 | 0.0 | 0.0 | 0.00 | 0.00 | 0.00 | 93 | 1009.4 |
| 20260510110024 | 50 | 0 | 0.0 | 0.0 | 0.00 | 0.00 | 0.00 | 92 | 1009.5 |
| 20260510105403 | 51 | 0 | 0.0 | 0.0 | 0.00 | 0.00 | 0.00 | 92 | 1009.5 |
| 20260510104503 | 51 | 0 | 0.0 | 0.0 | 0.00 | 0.00 | 0.00 | 92 | 1009.5 |
| 20260510103603 | 51 | 0 | 0.0 | 0.0 | 0.00 | 0.00 | 0.00 | 92 | 1009.6 |
| 20260510102724 | 51 | 0 | 0.0 | 0.0 | 0.00 | 0.00 | 0.00 | 92 | 1009.5 |
| 20260510101803 | 52 | 0 | 0.0 | 0.0 | 0.00 | 0.00 | 0.00 | 92 | 1009.5 |
| 20260510100903 | 52 | 0 | 0.0 | 0.0 | 0.00 | 0.00 | 0.00 | 92 | 1009.6 |
| 20260510100004 | 52 | 0 | 0.0 | 0.0 | 0.00 | 0.00 | 0.00 | 92 | 1009.7 |
| 20260510095403 | 52 | 0 | 0.0 | 0.0 | 0.00 | 0.00 | 0.00 | 92 | 1009.7 |
| 20260510094503 | 52 | 0 | 0.0 | 0.0 | 0.00 | 0.00 | 0.00 | 92 | 1009.7 |
| 20260510093603 | 52 | 0 | 0.0 | 0.0 | 0.00 | 0.00 | 0.00 | 92 | 1009.7 |
| 20260510092703 | 52 | 0 | 0.0 | 0.0 | 0.00 | 0.00 | 0.00 | 91 | 1009.8 |
| 20260510091803 | 52 | 0 | 0.0 | 0.0 | 0.00 | 0.00 | 0.00 | 91 | 1009.8 |
| 20260510090903 | 52 | 0 | 0.0 | 0.0 | 0.00 | 0.00 | 0.00 | 91 | 1009.7 |
| 20260510090003 | 53 | 0 | 0.0 | 0.0 | 0.00 | 0.00 | 0.00 | 91 | 1009.8 |
| 20260510085403 | 53 | 0 | 0.0 | 0.0 | 0.00 | 0.00 | 0.00 | 91 | 1009.8 |
| 20260510084524 | 53 | 0 | 0.0 | 0.0 | 0.00 | 0.00 | 0.00 | 91 | 1009.8 |
| 20260510083603 | 54 | 0 | 0.0 | 0.0 | 0.00 | 0.00 | 0.00 | 91 | 1009.8 |
| 20260510082703 | 54 | 0 | 0.0 | 0.0 | 0.00 | 0.00 | 0.00 | 91 | 1009.9 |
| 20260510081803 | 54 | 0 | 0.0 | 0.0 | 0.00 | 0.00 | 0.00 | 91 | 1010.0 |
| 20260510080924 | 54 | 0 | 0.0 | 0.0 | 0.00 | 0.00 | 0.00 | 90 | 1010.1 |
| 20260510080003 | 55 | 0 | 0.0 | 0.0 | 0.00 | 0.00 | 0.00 | 90 | 1010.1 |
| 20260510075404 | 55 | 0 | 0.0 | 0.0 | 0.00 | 0.00 | 0.00 | 90 | 1010.1 |
| 20260510074503 | 55 | 0 | 0.0 | 0.0 | 0.00 | 0.00 | 0.00 | 90 | 1010.2 |
| 20260510073624 | 56 | 0 | 0.0 | 0.0 | 0.00 | 0.00 | 0.00 | 90 | 1010.3 |
| 20260510072703 | 56 | 0 | 0.0 | 0.0 | 0.00 | 0.00 | 0.00 | 90 | 1010.4 |
| 20260510071803 | 56 | 0 | 0.0 | 0.0 | 0.00 | 0.00 | 0.00 | 89 | 1010.4 |
| 20260510070903 | 56 | 0 | 0.0 | 0.0 | 0.00 | 0.00 | 0.00 | 90 | 1010.5 |
| 20260510070003 | 56 | 0 | 0.0 | 0.0 | 0.00 | 0.00 | 0.00 | 89 | 1010.5 |
| 20260510065403 | 56 | 0 | 0.0 | 0.0 | 0.00 | 0.00 | 0.00 | 89 | 1010.6 |
| 20260510064503 | 57 | 0 | 0.0 | 0.0 | 0.00 | 0.00 | 0.00 | 88 | 1010.5 |
| 20260510063603 | 57 | 0 | 0.0 | 0.0 | 0.00 | 0.00 | 0.00 | 88 | 1010.6 |
| 20260510062703 | 57 | 0 | 0.0 | 0.0 | 0.00 | 0.00 | 0.00 | 88 | 1010.5 |
| 20260510061803 | 58 | 0 | 0.0 | 0.0 | 0.00 | 0.00 | 0.00 | 88 | 1010.5 |
| 20260510060903 | 58 | 0 | 0.0 | 0.0 | 0.00 | 0.00 | 0.00 | 88 | 1010.4 |
| 20260510060003 | 58 | 0 | 0.0 | 0.0 | 0.00 | 0.00 | 0.00 | 87 | 1010.5 |
| 20260510055403 | 58 | 0 | 0.0 | 0.0 | 0.00 | 0.00 | 0.00 | 87 | 1010.5 |
| 20260510054524 | 59 | 0 | 0.0 | 0.0 | 0.00 | 0.00 | 0.00 | 87 | 1010.5 |
| 20260510053603 | 59 | 248 | 0.0 | 1.0 | 0.00 | 0.00 | 0.00 | 86 | 1010.5 |
| 20260510052703 | 59 | 0 | 0.0 | 0.0 | 0.00 | 0.00 | 0.00 | 86 | 1010.3 |
| 20260510051803 | 59 | 0 | 0.0 | 0.0 | 0.00 | 0.00 | 0.00 | 85 | 1010.4 |
| 20260510050925 | 60 | 0 | 0.0 | 0.0 | 0.00 | 0.00 | 0.00 | 84 | 1010.4 |
| 20260510050003 | 60 | 0 | 0.0 | 0.0 | 0.00 | 0.00 | 0.00 | 83 | 1010.3 |
| 20260510045403 | 60 | 0 | 0.0 | 0.0 | 0.00 | 0.00 | 0.00 | 83 | 1010.3 |
| 20260510044503 | 61 | 0 | 0.0 | 0.0 | 0.00 | 0.00 | 0.00 | 83 | 1010.3 |
| 20260510043603 | 61 | 0 | 0.0 | 0.0 | 0.00 | 0.00 | 0.00 | 82 | 1010.3 |
| 20260510042703 | 62 | 0 | 0.0 | 0.0 | 0.00 | 0.00 | 0.00 | 81 | 1010.3 |
| 20260510041804 | 62 | 0 | 0.0 | 0.0 | 0.00 | 0.00 | 0.00 | 80 | 1010.2 |
| 20260510040903 | 63 | 0 | 0.0 | 0.0 | 0.00 | 0.00 | 0.00 | 79 | 1010.1 |
| 20260510040003 | 64 | 0 | 0.0 | 0.0 | 0.00 | 0.00 | 0.00 | 78 | 1010.0 |
| 20260510035403 | 64 | 0 | 0.0 | 0.0 | 0.00 | 0.00 | 0.00 | 77 | 1009.9 |
| 20260510034503 | 64 | 0 | 0.0 | 0.0 | 0.00 | 0.00 | 0.00 | 76 | 1009.8 |
| 20260510033603 | 65 | 0 | 0.0 | 0.0 | 0.00 | 0.00 | 0.00 | 76 | 1009.7 |
| 20260510032703 | 65 | 0 | 0.0 | 0.0 | 0.00 | 0.00 | 0.00 | 75 | 1009.6 |
| 20260510031803 | 66 | 0 | 0.0 | 0.0 | 0.00 | 0.00 | 0.00 | 74 | 1009.5 |
| 20260510030903 | 66 | 0 | 0.0 | 0.0 | 0.00 | 0.00 | 0.00 | 73 | 1009.4 |
| 20260510030003 | 67 | 0 | 0.0 | 0.0 | 0.00 | 0.00 | 0.00 | 71 | 1009.3 |
| 20260510025403 | 67 | 0 | 0.0 | 0.0 | 0.00 | 0.00 | 0.00 | 71 | 1009.3 |
| 20260510024524 | 68 | 0 | 0.0 | 0.0 | 0.00 | 0.00 | 0.00 | 69 | 1009.2 |
| 20260510023603 | 69 | 0 | 0.0 | 0.0 | 0.00 | 0.00 | 0.00 | 67 | 1009.2 |
| 20260510022703 | 70 | 237 | 1.0 | 3.0 | 0.00 | 0.00 | 0.00 | 65 | 1009.1 |
| 20260510021803 | 71 | 247 | 1.0 | 4.0 | 0.00 | 0.00 | 0.00 | 63 | 1009.1 |
| 20260510020903 | 72 | 245 | 2.0 | 4.0 | 0.00 | 0.00 | 0.00 | 62 | 1009.1 |
| 20260510020003 | 73 | 244 | 2.0 | 4.0 | 0.00 | 0.00 | 0.00 | 60 | 1008.9 |
| 20260510015403 | 74 | 244 | 2.0 | 5.0 | 0.00 | 0.00 | 0.00 | 59 | 1008.8 |
| 20260510014503 | 74 | 242 | 3.0 | 6.0 | 0.00 | 0.00 | 0.00 | 58 | 1008.9 |
| 20260510013603 | 75 | 243 | 4.0 | 7.0 | 0.00 | 0.00 | 0.00 | 56 | 1008.8 |
| 20260510012703 | 76 | 241 | 3.0 | 7.0 | 0.00 | 0.00 | 0.00 | 54 | 1008.8 |
| 20260510011803 | 77 | 248 | 3.0 | 7.0 | 0.00 | 0.00 | 0.00 | 51 | 1008.8 |
| 20260510010924 | 78 | 233 | 4.0 | 7.0 | 0.00 | 0.00 | 0.00 | 50 | 1008.8 |
| 20260510010003 | 79 | 210 | 3.0 | 7.0 | 0.00 | 0.00 | 0.00 | 46 | 1008.8 |
| 20260510005424 | 79 | 204 | 3.0 | 6.0 | 0.00 | 0.00 | 0.00 | 46 | 1008.7 |
| 20260510004503 | 80 | 213 | 2.0 | 8.0 | 0.00 | 0.00 | 0.00 | 46 | 1008.7 |
| 20260510003604 | 79 | 226 | 3.0 | 8.0 | 0.00 | 0.00 | 0.00 | 46 | 1008.7 |
| 20260510002703 | 79 | 227 | 3.0 | 9.0 | 0.00 | 0.00 | 0.00 | 46 | 1008.6 |
| 20260510001803 | 80 | 232 | 4.0 | 9.0 | 0.00 | 0.00 | 0.00 | 45 | 1008.6 |
| 20260510000903 | 80 | 230 | 4.0 | 8.0 | 0.00 | 0.00 | 0.00 | 45 | 1008.7 |
| 20260510000003 | 80 | 225 | 4.0 | 10.0 | 0.00 | 0.00 | 0.00 | 45 | 1008.6 |
| 20260509235403 | 80 | 230 | 4.0 | 10.0 | 0.00 | 0.00 | 0.00 | 45 | 1008.5 |
| 20260509234504 | 81 | 236 | 4.0 | 8.0 | 0.00 | 0.00 | 0.00 | 44 | 1008.5 |
| 20260509233603 | 81 | 236 | 5.0 | 10.0 | 0.00 | 0.00 | 0.00 | 45 | 1008.6 |
| 20260509232724 | 80 | 226 | 4.0 | 10.0 | 0.00 | 0.00 | 0.00 | 44 | 1008.6 |
| 20260509231824 | 81 | 234 | 5.0 | 9.0 | 0.00 | 0.00 | 0.00 | 45 | 1008.6 |
| 20260509230903 | 81 | 234 | 5.0 | 11.0 | 0.00 | 0.00 | 0.00 | 44 | 1008.6 |
| 20260509230003 | 82 | 227 | 3.0 | 10.0 | 0.00 | 0.00 | 0.00 | 43 | 1008.6 |
| 20260509225403 | 82 | 220 | 3.0 | 9.0 | 0.00 | 0.00 | 0.00 | 44 | 1008.7 |
| 20260509224503 | 82 | 221 | 4.0 | 10.0 | 0.00 | 0.00 | 0.00 | 44 | 1008.8 |
| 20260509223603 | 82 | 224 | 4.0 | 9.0 | 0.00 | 0.00 | 0.00 | 44 | 1008.8 |
| 20260509222703 | 82 | 229 | 5.0 | 11.0 | 0.00 | 0.00 | 0.00 | 44 | 1008.9 |
| 20260509221803 | 82 | 237 | 5.0 | 11.0 | 0.00 | 0.00 | 0.00 | 43 | 1008.9 |
| 20260509220924 | 83 | 231 | 5.0 | 10.0 | 0.00 | 0.00 | 0.00 | 44 | 1009.0 |
| 20260509220003 | 84 | 241 | 5.0 | 13.0 | 0.00 | 0.00 | 0.00 | 44 | 1009.0 |
| 20260509215403 | 83 | 238 | 5.0 | 13.0 | 0.00 | 0.00 | 0.00 | 45 | 1008.9 |
| 20260509214503 | 84 | 235 | 4.0 | 9.0 | 0.00 | 0.00 | 0.00 | 44 | 1009.0 |
| 20260509213603 | 84 | 248 | 4.0 | 9.0 | 0.00 | 0.00 | 0.00 | 45 | 1009.0 |
| 20260509212724 | 84 | 248 | 4.0 | 10.0 | 0.00 | 0.00 | 0.00 | 44 | 1009.1 |
| 20260509211803 | 83 | 238 | 6.0 | 11.0 | 0.00 | 0.00 | 0.00 | 45 | 1009.2 |
| 20260509210903 | 84 | 245 | 4.0 | 9.0 | 0.00 | 0.00 | 0.00 | 45 | 1009.2 |
| 20260509210003 | 83 | 255 | 4.0 | 10.0 | 0.00 | 0.00 | 0.00 | 46 | 1009.3 |
| 20260509205403 | 84 | 247 | 6.0 | 13.0 | 0.00 | 0.00 | 0.00 | 45 | 1009.3 |
| 20260509204503 | 84 | 252 | 5.0 | 11.0 | 0.00 | 0.00 | 0.00 | 44 | 1009.3 |
| 20260509203603 | 85 | 246 | 3.0 | 9.0 | 0.00 | 0.00 | 0.00 | 42 | 1009.4 |
| 20260509202703 | 85 | 233 | 3.0 | 9.0 | 0.00 | 0.00 | 0.00 | 42 | 1009.5 |
| 20260509201803 | 85 | 246 | 4.0 | 9.0 | 0.00 | 0.00 | 0.00 | 41 | 1009.5 |
| 20260509200903 | 84 | 263 | 4.0 | 11.0 | 0.00 | 0.00 | 0.00 | 41 | 1009.5 |
| 20260509200003 | 85 | 262 | 3.0 | 7.0 | 0.00 | 0.00 | 0.00 | 42 | 1009.6 |
| 20260509195425 | 84 | 254 | 4.0 | 14.0 | 0.00 | 0.00 | 0.00 | 44 | 1009.7 |
| 20260509194503 | 84 | 239 | 4.0 | 9.0 | 0.00 | 0.00 | 0.00 | 43 | 1009.8 |
| 20260509193625 | 83 | 248 | 5.0 | 13.0 | 0.00 | 0.00 | 0.00 | 46 | 1009.8 |
| 20260509192703 | 84 | 236 | 4.0 | 10.0 | 0.00 | 0.00 | 0.00 | 44 | 1009.9 |
| 20260509191803 | 84 | 230 | 2.0 | 8.0 | 0.00 | 0.00 | 0.00 | 39 | 1009.9 |
| 20260509190903 | 84 | 215 | 3.0 | 7.0 | 0.00 | 0.00 | 0.00 | 36 | 1010.0 |
| 20260509190005 | 84 | 226 | 2.0 | 8.0 | 0.00 | 0.00 | 0.00 | 37 | 1010.1 |
| 20260509185424 | 83 | 228 | 3.0 | 8.0 | 0.00 | 0.00 | 0.00 | 37 | 1010.1 |
| 20260509184503 | 83 | 229 | 2.0 | 8.0 | 0.00 | 0.00 | 0.00 | 36 | 1010.3 |
| 20260509183603 | 83 | 217 | 2.0 | 8.0 | 0.00 | 0.00 | 0.00 | 38 | 1010.3 |
| 20260509182724 | 82 | 202 | 1.0 | 4.0 | 0.00 | 0.00 | 0.00 | 36 | 1010.4 |
| 20260509181824 | 81 | 210 | 1.0 | 5.0 | 0.00 | 0.00 | 0.00 | 36 | 1010.5 |
| 20260509180903 | 80 | 195 | 1.0 | 5.0 | 0.00 | 0.00 | 0.00 | 42 | 1010.6 |
| 20260509180024 | 79 | 242 | 0.0 | 4.0 | 0.00 | 0.00 | 0.00 | 51 | 1010.6 |
| 20260509175403 | 78 | 234 | 0.0 | 4.0 | 0.00 | 0.00 | 0.00 | 53 | 1010.7 |
| 20260509174524 | 76 | 245 | 1.0 | 4.0 | 0.00 | 0.00 | 0.00 | 54 | 1010.8 |